Date,TemperatureHighF,TemperatureAvgF,TemperatureLowF,DewpointHighF,DewpointAvgF,DewpointLowF,HumidityHigh,HumidityAvg,HumidityLow,PressureMaxIn,PressureMinIn,WindSpeedMaxMPH,WindSpeedAvgMPH,GustSpeedMaxMPH,PrecipitationSumIn
2013-8-2,77.7,76.3,75.6,73.9,72.1,71.5,90,87,83,29.95,29.92,2,0,2,0.01
2013-8-3,88.3,77.2,71.1,76.6,73.1,66.7,98,88,60,30.05,29.91,5,0,7,1.00
2013-8-4,99.1,81.6,73.9,79.1,73.7,69.1,99,80,44,30.00,29.82,11,1,11,0.02
2013-8-5,99.7,82.9,75.0,79.1,73.5,69.7,96,76,44,29.88,29.78,7,1,7,0.00
2013-8-6,76.8,76.6,76.5,73.5,73.1,72.7,90,89,87,29.82,29.79,0,0,0,0.00
2013-8-11,82.9,82.1,81.5,73.3,73.1,72.9,75,74,72,29.94,29.93,5,2,5,0.14
2013-8-12,95.5,85.8,76.6,73.0,71.5,69.6,86,64,45,29.92,29.83,7,2,7,0.00
2013-8-13,97.9,87.8,79.0,74.9,71.9,69.1,83,61,45,29.84,29.77,8,2,8,0.00
2013-8-14,100.8,87.8,75.9,77.0,72.1,69.1,92,62,41,29.83,29.74,8,2,8,0.00
2013-8-15,89.8,81.7,73.8,76.2,73.3,70.2,97,77,56,29.87,29.77,8,2,8,0.50
2013-8-16,95.9,85.1,77.7,78.4,74.2,71.3,88,71,48,29.87,29.79,8,2,8,0.01
2013-8-17,93.9,86.1,80.8,76.0,74.5,71.5,81,69,52,29.90,29.81,10,3,10,0.00
2013-8-18,96.6,86.0,81.3,77.1,73.4,70.8,82,67,47,29.90,29.81,10,4,10,0.08
2013-8-19,94.5,85.7,79.5,75.3,73.6,70.4,85,68,50,29.89,29.78,10,3,10,0.06
2013-8-20,95.9,86.4,80.2,74.0,72.2,67.9,77,64,48,29.87,29.80,13,3,13,0.00
2013-8-21,83.3,83.2,82.9,74.6,73.8,73.2,75,73,72,29.93,29.92,5,3,5,0.18
2013-8-22,94.6,85.4,76.8,79.4,73.7,70.4,89,69,53,29.93,29.82,10,3,10,0.28
2013-8-23,98.1,84.6,76.8,77.0,73.6,71.1,92,71,45,29.89,29.81,10,2,10,0.01
2013-8-24,99.0,85.8,77.2,77.1,73.0,70.6,88,68,44,29.95,29.84,6,1,6,0.00
2013-8-25,92.8,85.0,80.4,73.8,71.4,68.7,77,64,51,29.97,29.87,8,2,8,0.00
2013-8-26,98.1,82.1,71.2,75.2,71.7,68.4,94,73,44,29.93,29.83,9,1,9,0.61
2013-8-27,95.4,79.1,72.9,77.7,71.2,66.5,96,79,45,29.87,29.79,6,1,6,0.02
2013-8-28,91.4,80.7,73.8,73.4,71.5,68.1,92,75,49,29.86,29.77,7,2,7,0.02
2013-8-29,101.3,84.6,73.4,76.1,66.5,-32.3,92,64,1,29.85,29.75,49,4,49,0.01
2013-8-30,103.3,86.3,75.9,77.3,72.1,68.7,90,65,36,29.82,29.72,8,2,8,0.00
2013-8-31,99.7,83.0,73.8,76.1,71.7,68.1,87,71,42,29.80,29.73,7,1,7,0.04